Christchurch, New Zealand

2:24 AM NZST on May 01, 2017 (GMT +1200)
Christchurch International

Weather History for NZCH - May, 2014

Change the Weather History Date:

Friday, May 23, 2014

  Actual Average Record
Temperature  
Mean Temperature 56 °F -  
Max Temperature 69 °F 52 °F 71 °F (2007)
Min Temperature 44 °F 34 °F 24 °F (2001)
Degree Days  
Heating Degree Days 8    
Growing Degree Days 6 (Base 50)    
Moisture  
Dew Point 45 °F    
Average Humidity 66    
Maximum Humidity 100    
Minimum Humidity 46    
Precipitation  
Precipitation 0.00 in - - ()
Sea Level Pressure  
Sea Level Pressure 29.39 in    
Wind  
Wind Speed 8 mph ()    
Max Wind Speed 24 mph    
Max Gust Speed 39 mph    
Visibility 6.2 miles    
Events      
Averages and records for this station are not official NWS values.
T = Trace of Precipitation, MM = Missing Value Source: Averaged Metar Reports

Daily Weather History Graph

Daily Weather History Graph

Search for Another Location

Airport or City:

Trip Planner

Search our weather history database for the weather conditions in past years. The results will help you decide how hot, cold, wet, or windy it might be!

Date:

Astronomy

May. 23, 2014 Rise Set
Actual Time 7:44 AM NZST 5:08 PM NZST
Civil Twilight 7:12 AM NZST 5:39 PM NZST
Nautical Twilight 6:37 AM NZST 6:15 PM NZST
Astronomical Twilight 6:03 AM NZST 6:49 PM NZST
Moon 1:17 AM NZST (5/23) 1:53 PM NZST (5/23)
Length of Visible Light 10h 27m
Length of Day
9h 24m
Waning Crescent, 34% of the Moon is Illuminated
May 23
Waning Crescent
May 29
New
Jun 6
First Quarter
Jun 13
Full
Jun 20
Last Quarter

Hourly Weather History & Observations

Time (NZST) Temp. Windchill Dew Point Humidity Pressure Visibility Wind Dir Wind Speed Gust Speed Precip Events Conditions
12:00 AM 50.0 °F - 39.2 °F 66% 29.59 in 6.2 mi NNE 3.5 mph - N/A   Unknown
12:30 AM 46.4 °F 44.3 °F 39.2 °F 76% 29.59 in 6.2 mi NNE 4.6 mph - N/A   Unknown
1:00 AM 46.4 °F - 39.2 °F 76% 29.56 in 6.2 mi North 1.2 mph - N/A   Unknown
1:30 AM 46.4 °F 44.3 °F 41.0 °F 81% 29.56 in 6.2 mi WNW 4.6 mph - N/A   Unknown
2:00 AM 59.0 °F - 41.0 °F 51% 29.56 in 6.2 mi WNW 13.8 mph - N/A   Unknown
2:30 AM 57.2 °F - 41.0 °F 55% 29.53 in 6.2 mi NNW 10.4 mph - N/A   Unknown
3:00 AM 55.4 °F - 41.0 °F 58% 29.53 in 6.2 mi NNW 8.1 mph - N/A   Unknown
3:30 AM 53.6 °F - 41.0 °F 62% 29.50 in 6.2 mi NNE 8.1 mph - N/A   Unknown
4:00 AM 55.4 °F - 41.0 °F 58% 29.47 in 6.2 mi North 10.4 mph - N/A   Unknown
4:30 AM 51.8 °F - 42.8 °F 71% 29.47 in 6.2 mi NNE 9.2 mph - N/A   Unknown
5:00 AM 48.2 °F - 42.8 °F 82% 29.44 in 6.2 mi NNE 9.2 mph - N/A   Unknown
5:30 AM 51.8 °F - 42.8 °F 71% 29.42 in 6.2 mi NNE 9.2 mph - N/A   Unknown
6:00 AM 53.6 °F - 44.6 °F 72% 29.42 in 6.2 mi NNE 10.4 mph - N/A   Unknown
6:30 AM 55.4 °F - 44.6 °F 67% 29.42 in 6.2 mi North 9.2 mph - N/A   Unknown
7:00 AM 51.8 °F - 42.8 °F 71% 29.42 in 6.2 mi NNE 8.1 mph - N/A   Unknown
7:30 AM 50.0 °F - 44.6 °F 82% 29.39 in 6.2 mi NNE 6.9 mph - N/A   Unknown
8:00 AM 57.2 °F - 44.6 °F 63% 29.36 in 6.2 mi North 9.2 mph - N/A   Unknown
8:30 AM 57.2 °F - 44.6 °F 63% 29.39 in 6.2 mi NNE 5.8 mph - N/A   Unknown
9:00 AM 55.4 °F - 44.6 °F 67% 29.36 in 6.2 mi NE 6.9 mph - N/A   Partly Cloudy
9:30 AM 68.0 °F - 46.4 °F 46% 29.33 in 6.2 mi NW 17.3 mph 29.9 mph N/A   Partly Cloudy
10:00 AM 68.0 °F - 46.4 °F 46% 29.33 in 6.2 mi WNW 21.9 mph - N/A   Unknown
10:30 AM 68.0 °F - 46.4 °F 46% 29.36 in 6.2 mi West 10.4 mph - N/A   Unknown
11:00 AM 68.0 °F - 46.4 °F 46% 29.33 in 6.2 mi WNW 21.9 mph - N/A   Unknown
11:30 AM 68.0 °F - 50.0 °F 52% 29.33 in 6.2 mi West 12.7 mph - N/A   Unknown
12:00 PM 69.8 °F - 48.2 °F 46% 29.30 in 6.2 mi NW 16.1 mph - N/A   Unknown
12:30 PM 69.8 °F - 48.2 °F 46% 29.30 in 6.2 mi WNW 12.7 mph - N/A   Unknown
1:00 PM 69.8 °F - 48.2 °F 46% 29.30 in 6.2 mi WNW 24.2 mph 39.1 mph N/A   Unknown
1:30 PM 69.8 °F - 48.2 °F 46% 29.30 in 6.2 mi WNW 19.6 mph 35.7 mph N/A   Partly Cloudy
2:00 PM 69.8 °F - 50.0 °F 49% 29.30 in 6.2 mi WNW 17.3 mph - N/A   Partly Cloudy
2:30 PM 66.2 °F - 50.0 °F 56% 29.27 in 6.2 mi NW 15.0 mph - N/A   Unknown
3:00 PM 64.4 °F - 50.0 °F 59% 29.27 in 6.2 mi NW 9.2 mph - N/A   Unknown
3:30 PM 64.4 °F - 50.0 °F 59% 29.27 in 6.2 mi NW 9.2 mph - N/A   Unknown
4:00 PM 64.4 °F - 50.0 °F 59% 29.27 in 6.2 mi NW 4.6 mph - N/A   Unknown
4:30 PM 66.2 °F - 46.4 °F 49% 29.27 in 6.2 mi NW 9.2 mph - N/A   Unknown
5:00 PM 66.2 °F - 44.6 °F 46% 29.27 in 6.2 mi WNW 13.8 mph 28.8 mph N/A   Unknown
5:30 PM 62.6 °F - 44.6 °F 52% 29.30 in 6.2 mi WNW 8.1 mph - N/A   Unknown
6:00 PM 62.6 °F - 46.4 °F 55% 29.30 in 6.2 mi West 6.9 mph - N/A   Unknown
6:30 PM 57.2 °F - 44.6 °F 63% 29.33 in 6.2 mi West 5.8 mph - N/A   Unknown
7:00 PM 55.4 °F - 48.2 °F 77% 29.36 in 6.2 mi SW 12.7 mph - N/A   Unknown
7:30 PM 51.8 °F - 48.2 °F 88% 29.36 in 6.2 mi SSW 10.4 mph - N/A   Unknown
8:00 PM 51.8 °F - 48.2 °F 88% 29.36 in 6.2 mi WSW 8.1 mph - N/A   Unknown
8:30 PM 50.0 °F - 46.4 °F 87% 29.39 in 6.2 mi SW 6.9 mph - N/A   Unknown
9:00 PM 50.0 °F - 46.4 °F 87% 29.39 in 6.2 mi WSW 4.6 mph - N/A   Unknown
9:30 PM 46.4 °F - 44.6 °F 93% 29.39 in 6.2 mi Calm Calm - N/A   Unknown
10:00 PM 46.4 °F - 46.4 °F 100% 29.39 in 6.2 mi Calm Calm - N/A   Unknown
10:30 PM 44.6 °F 41.4 °F 44.6 °F 100% 29.39 in 6.2 mi North 5.8 mph - N/A   Unknown
11:00 PM 46.4 °F 43.5 °F 44.6 °F 93% 29.42 in 6.2 mi NNE 5.8 mph - N/A   Unknown
11:30 PM 48.2 °F - 46.4 °F 93% 29.39 in 6.2 mi NE 8.1 mph - N/A   Unknown